"Time","Value","Approval","myLocation"
"2023-04-18 00:00",14.191,"Working","OW288"
"2023-04-18 01:00",14.185,"Working","OW288"
"2023-04-18 02:00",14.18,"Working","OW288"
"2023-04-18 03:00",14.175,"Working","OW288"
"2023-04-18 04:00",14.171,"Working","OW288"
"2023-04-18 05:00",14.166,"Working","OW288"
"2023-04-18 06:00",14.162,"Working","OW288"
"2023-04-18 07:00",14.158,"Working","OW288"
"2023-04-18 08:00",14.155,"Working","OW288"
"2023-04-18 09:00",14.152,"Working","OW288"
"2023-04-18 10:00",14.149,"Working","OW288"
"2023-04-18 11:00",14.145,"Working","OW288"
"2023-04-18 12:00",14.142,"Working","OW288"
"2023-04-18 13:00",14.139,"Working","OW288"
"2023-04-18 14:00",14.136,"Working","OW288"
"2023-04-18 15:00",14.134,"Working","OW288"
"2023-04-18 16:00",14.133,"Working","OW288"
"2023-04-18 17:00",14.134,"Working","OW288"
"2023-04-18 18:00",14.134,"Working","OW288"
"2023-04-18 19:00",14.136,"Working","OW288"
"2023-04-18 20:00",14.138,"Working","OW288"
"2023-04-18 21:00",14.141,"Working","OW288"
"2023-04-18 22:00",14.142,"Working","OW288"
"2023-04-18 23:00",14.143,"Working","OW288"
"2023-04-19 00:00",14.145,"Working","OW288"
"2023-04-19 01:00",14.147,"Working","OW288"
"2023-04-19 02:00",14.148,"Working","OW288"
"2023-04-19 03:00",14.149,"Working","OW288"
"2023-04-19 04:00",14.15,"Working","OW288"
"2023-04-19 05:00",14.152,"Working","OW288"
"2023-04-19 06:00",14.153,"Working","OW288"
"2023-04-19 07:00",14.154,"Working","OW288"
"2023-04-19 08:00",14.155,"Working","OW288"
"2023-04-19 09:00",14.156,"Working","OW288"
"2023-04-19 10:00",14.157,"Working","OW288"
"2023-04-19 11:00",14.157,"Working","OW288"
"2023-04-19 12:00",14.159,"Working","OW288"
"2023-04-19 13:00",14.16,"Working","OW288"
"2023-04-19 14:00",14.161,"Working","OW288"
"2023-04-19 15:00",14.162,"Working","OW288"
"2023-04-19 16:00",14.164,"Working","OW288"
"2023-04-19 17:00",14.165,"Working","OW288"
"2023-04-19 18:00",14.166,"Working","OW288"
"2023-04-19 19:00",14.169,"Working","OW288"
"2023-04-19 20:00",14.172,"Working","OW288"
"2023-04-19 21:00",14.174,"Working","OW288"
"2023-04-19 22:00",14.176,"Working","OW288"
"2023-04-19 23:00",14.178,"Working","OW288"
"2023-04-20 00:00",14.179,"Working","OW288"
"2023-04-20 01:00",14.182,"Working","OW288"
"2023-04-20 02:00",14.183,"Working","OW288"
"2023-04-20 03:00",14.185,"Working","OW288"
"2023-04-20 04:00",14.186,"Working","OW288"
"2023-04-20 05:00",14.188,"Working","OW288"
"2023-04-20 06:00",14.189,"Working","OW288"
"2023-04-20 07:00",14.19,"Working","OW288"
"2023-04-20 08:00",14.19,"Working","OW288"
"2023-04-20 09:00",14.191,"Working","OW288"
"2023-04-20 10:00",14.191,"Working","OW288"
"2023-04-20 11:00",14.19,"Working","OW288"
"2023-04-20 12:00",14.189,"Working","OW288"
"2023-04-20 13:00",14.187,"Working","OW288"
"2023-04-20 14:00",14.184,"Working","OW288"
"2023-04-20 15:00",14.181,"Working","OW288"
"2023-04-20 16:00",14.178,"Working","OW288"
"2023-04-20 17:00",14.173,"Working","OW288"
"2023-04-20 18:00",14.169,"Working","OW288"
"2023-04-20 19:00",14.163,"Working","OW288"
"2023-04-20 20:00",14.159,"Working","OW288"
"2023-04-20 21:00",14.153,"Working","OW288"
"2023-04-20 22:00",14.148,"Working","OW288"
"2023-04-20 23:00",14.141,"Working","OW288"
"2023-04-21 00:00",14.136,"Working","OW288"
"2023-04-21 01:00",14.13,"Working","OW288"
"2023-04-21 02:00",14.126,"Working","OW288"
"2023-04-21 03:00",14.124,"Working","OW288"
"2023-04-21 04:00",14.122,"Working","OW288"
"2023-04-21 05:00",14.121,"Working","OW288"
"2023-04-21 06:00",14.12,"Working","OW288"
"2023-04-21 07:00",14.12,"Working","OW288"
"2023-04-21 08:00",14.12,"Working","OW288"
"2023-04-21 09:00",14.121,"Working","OW288"
"2023-04-21 10:00",14.123,"Working","OW288"
"2023-04-21 11:00",14.126,"Working","OW288"
"2023-04-21 12:00",14.129,"Working","OW288"
"2023-04-21 13:00",14.131,"Working","OW288"
"2023-04-21 14:00",14.133,"Working","OW288"
"2023-04-21 15:00",14.134,"Working","OW288"
"2023-04-21 16:00",14.136,"Working","OW288"
"2023-04-21 17:00",14.138,"Working","OW288"
"2023-04-21 18:00",14.14,"Working","OW288"
"2023-04-21 19:00",14.14,"Working","OW288"
"2023-04-21 20:00",14.141,"Working","OW288"
"2023-04-21 21:00",14.141,"Working","OW288"
"2023-04-21 22:00",14.141,"Working","OW288"
"2023-04-21 23:00",14.141,"Working","OW288"
"2023-04-22 00:00",14.141,"Working","OW288"
"2023-04-22 01:00",14.14,"Working","OW288"
"2023-04-22 02:00",14.139,"Working","OW288"
"2023-04-22 03:00",14.137,"Working","OW288"
"2023-04-22 04:00",14.137,"Working","OW288"
"2023-04-22 05:00",14.136,"Working","OW288"
"2023-04-22 06:00",14.134,"Working","OW288"
"2023-04-22 07:00",14.132,"Working","OW288"
"2023-04-22 08:00",14.13,"Working","OW288"
"2023-04-22 09:00",14.128,"Working","OW288"
"2023-04-22 10:00",14.125,"Working","OW288"
"2023-04-22 11:00",14.123,"Working","OW288"
"2023-04-22 12:00",14.12,"Working","OW288"
"2023-04-22 13:00",14.118,"Working","OW288"
"2023-04-22 14:00",14.114,"Working","OW288"
"2023-04-22 15:00",14.111,"Working","OW288"
"2023-04-22 16:00",14.107,"Working","OW288"
"2023-04-22 17:00",14.103,"Working","OW288"
"2023-04-22 18:00",14.098,"Working","OW288"
"2023-04-22 19:00",14.093,"Working","OW288"
"2023-04-22 20:00",14.089,"Working","OW288"
"2023-04-22 21:00",14.083,"Working","OW288"
"2023-04-22 22:00",14.078,"Working","OW288"
"2023-04-22 23:00",14.073,"Working","OW288"
"2023-04-23 00:00",14.066,"Working","OW288"
"2023-04-23 01:00",14.06,"Working","OW288"
"2023-04-23 02:00",14.054,"Working","OW288"
"2023-04-23 03:00",14.047,"Working","OW288"
"2023-04-23 04:00",14.04,"Working","OW288"
"2023-04-23 05:00",14.033,"Working","OW288"
"2023-04-23 06:00",14.026,"Working","OW288"
"2023-04-23 07:00",14.018,"Working","OW288"
"2023-04-23 08:00",14.011,"Working","OW288"
"2023-04-23 09:00",14.005,"Working","OW288"
"2023-04-23 10:00",13.999,"Working","OW288"
"2023-04-23 11:00",13.993,"Working","OW288"
"2023-04-23 12:00",13.991,"Working","OW288"
"2023-04-23 13:00",13.986,"Working","OW288"
"2023-04-23 14:00",13.982,"Working","OW288"
"2023-04-23 15:00",13.979,"Working","OW288"
"2023-04-23 16:00",13.976,"Working","OW288"
"2023-04-23 17:00",13.973,"Working","OW288"
"2023-04-23 18:00",13.971,"Working","OW288"
"2023-04-23 19:00",13.968,"Working","OW288"
"2023-04-23 20:00",13.967,"Working","OW288"
"2023-04-23 21:00",13.966,"Working","OW288"
"2023-04-23 22:00",13.965,"Working","OW288"
"2023-04-23 23:00",13.964,"Working","OW288"
"2023-04-24 00:00",13.962,"Working","OW288"
"2023-04-24 01:00",13.96,"Working","OW288"
"2023-04-24 02:00",13.959,"Working","OW288"
"2023-04-24 03:00",13.957,"Working","OW288"
"2023-04-24 04:00",13.955,"Working","OW288"
"2023-04-24 05:00",13.955,"Working","OW288"
"2023-04-24 06:00",13.953,"Working","OW288"
"2023-04-24 07:00",13.953,"Working","OW288"
"2023-04-24 08:00",13.953,"Working","OW288"
"2023-04-24 09:00",13.954,"Working","OW288"
"2023-04-24 10:00",13.956,"Working","OW288"
"2023-04-24 11:00",13.959,"Working","OW288"
"2023-04-24 12:00",13.962,"Working","OW288"
"2023-04-24 13:00",13.966,"Working","OW288"
"2023-04-24 14:00",13.97,"Working","OW288"
"2023-04-24 15:00",13.974,"Working","OW288"
"2023-04-24 16:00",13.979,"Working","OW288"
"2023-04-24 17:00",13.983,"Working","OW288"
"2023-04-24 18:00",13.987,"Working","OW288"
"2023-04-24 19:00",13.99,"Working","OW288"
"2023-04-24 20:00",13.994,"Working","OW288"
"2023-04-24 21:00",13.996,"Working","OW288"
"2023-04-24 22:00",13.998,"Working","OW288"
"2023-04-24 23:00",13.999,"Working","OW288"
"2023-04-25 00:00",14.002,"Working","OW288"
"2023-04-25 01:00",14.003,"Working","OW288"
"2023-04-25 02:00",14.005,"Working","OW288"
"2023-04-25 03:00",14.006,"Working","OW288"
"2023-04-25 04:00",14.007,"Working","OW288"
"2023-04-25 05:00",14.009,"Working","OW288"
"2023-04-25 06:00",14.01,"Working","OW288"
"2023-04-25 07:00",14.011,"Working","OW288"
"2023-04-25 08:00",14.012,"Working","OW288"
"2023-04-25 09:00",14.014,"Working","OW288"
"2023-04-25 10:00",14.015,"Working","OW288"
"2023-04-25 11:00",14.017,"Working","OW288"
"2023-04-25 12:00",14.019,"Working","OW288"
"2023-04-25 13:00",14.02,"Working","OW288"
"2023-04-25 14:00",14.021,"Working","OW288"
"2023-04-25 15:00",14.022,"Working","OW288"
"2023-04-25 16:00",14.023,"Working","OW288"
"2023-04-25 17:00",14.023,"Working","OW288"
"2023-04-25 18:00",14.023,"Working","OW288"
"2023-04-25 19:00",14.023,"Working","OW288"
"2023-04-25 20:00",14.022,"Working","OW288"
"2023-04-25 21:00",14.02,"Working","OW288"
"2023-04-25 22:00",14.019,"Working","OW288"
"2023-04-25 23:00",14.018,"Working","OW288"
"2023-04-26 00:00",14.015,"Working","OW288"
"2023-04-26 01:00",14.014,"Working","OW288"
"2023-04-26 02:00",14.012,"Working","OW288"
"2023-04-26 03:00",14.011,"Working","OW288"
"2023-04-26 04:00",14.01,"Working","OW288"
"2023-04-26 05:00",14.01,"Working","OW288"
"2023-04-26 06:00",14.01,"Working","OW288"
"2023-04-26 07:00",14.01,"Working","OW288"
"2023-04-26 08:00",14.01,"Working","OW288"
"2023-04-26 09:00",14.012,"Working","OW288"
"2023-04-26 10:00",14.013,"Working","OW288"
"2023-04-26 11:00",14.014,"Working","OW288"
"2023-04-26 12:00",14.015,"Working","OW288"
"2023-04-26 13:00",14.017,"Working","OW288"
"2023-04-26 14:00",14.018,"Working","OW288"
"2023-04-26 15:00",14.02,"Working","OW288"
"2023-04-26 16:00",14.021,"Working","OW288"
"2023-04-26 17:00",14.022,"Working","OW288"
"2023-04-26 18:00",14.025,"Working","OW288"
"2023-04-26 19:00",14.028,"Working","OW288"
"2023-04-26 20:00",14.031,"Working","OW288"
"2023-04-26 21:00",14.034,"Working","OW288"
"2023-04-26 22:00",14.037,"Working","OW288"
"2023-04-26 23:00",14.041,"Working","OW288"
"2023-04-27 00:00",14.044,"Working","OW288"
"2023-04-27 01:00",14.048,"Working","OW288"
"2023-04-27 02:00",14.051,"Working","OW288"
"2023-04-27 03:00",14.053,"Working","OW288"
"2023-04-27 04:00",14.055,"Working","OW288"
"2023-04-27 05:00",14.058,"Working","OW288"
"2023-04-27 06:00",14.059,"Working","OW288"
"2023-04-27 07:00",14.061,"Working","OW288"
"2023-04-27 08:00",14.062,"Working","OW288"
"2023-04-27 09:00",14.063,"Working","OW288"
"2023-04-27 10:00",14.064,"Working","OW288"
"2023-04-27 11:00",14.064,"Working","OW288"
"2023-04-27 12:00",14.066,"Working","OW288"
"2023-04-27 13:00",14.067,"Working","OW288"
"2023-04-27 14:00",14.069,"Working","OW288"
"2023-04-27 15:00",14.07,"Working","OW288"
"2023-04-27 16:00",14.071,"Working","OW288"
"2023-04-27 17:00",14.071,"Working","OW288"
"2023-04-27 18:00",14.071,"Working","OW288"
"2023-04-27 19:00",14.07,"Working","OW288"
"2023-04-27 20:00",14.068,"Working","OW288"
"2023-04-27 21:00",14.066,"Working","OW288"
"2023-04-27 22:00",14.064,"Working","OW288"
"2023-04-27 23:00",14.061,"Working","OW288"
"2023-04-28 00:00",14.058,"Working","OW288"
"2023-04-28 01:00",14.053,"Working","OW288"
"2023-04-28 02:00",14.048,"Working","OW288"
"2023-04-28 03:00",14.045,"Working","OW288"
"2023-04-28 04:00",14.041,"Working","OW288"
"2023-04-28 05:00",14.037,"Working","OW288"
"2023-04-28 06:00",14.033,"Working","OW288"
"2023-04-28 07:00",14.03,"Working","OW288"
"2023-04-28 08:00",14.026,"Working","OW288"
"2023-04-28 09:00",14.022,"Working","OW288"
"2023-04-28 10:00",14.019,"Working","OW288"
"2023-04-28 11:00",14.015,"Working","OW288"
"2023-04-28 12:00",14.011,"Working","OW288"
"2023-04-28 13:00",14.006,"Working","OW288"
"2023-04-28 14:00",14.002,"Working","OW288"
"2023-04-28 15:00",13.998,"Working","OW288"
"2023-04-28 16:00",13.994,"Working","OW288"
"2023-04-28 17:00",13.989,"Working","OW288"
"2023-04-28 18:00",13.983,"Working","OW288"
"2023-04-28 19:00",13.979,"Working","OW288"
"2023-04-28 20:00",13.974,"Working","OW288"
"2023-04-28 21:00",13.968,"Working","OW288"
"2023-04-28 22:00",13.962,"Working","OW288"
"2023-04-28 23:00",13.957,"Working","OW288"
"2023-04-29 00:00",13.95,"Working","OW288"
"2023-04-29 01:00",13.944,"Working","OW288"
"2023-04-29 02:00",13.939,"Working","OW288"
"2023-04-29 03:00",13.932,"Working","OW288"
"2023-04-29 04:00",13.927,"Working","OW288"
"2023-04-29 05:00",13.922,"Working","OW288"
"2023-04-29 06:00",13.917,"Working","OW288"
"2023-04-29 07:00",13.913,"Working","OW288"
"2023-04-29 08:00",13.908,"Working","OW288"
"2023-04-29 09:00",13.904,"Working","OW288"
"2023-04-29 10:00",13.9,"Working","OW288"
"2023-04-29 11:00",13.897,"Working","OW288"
"2023-04-29 12:00",13.894,"Working","OW288"
"2023-04-29 13:00",13.891,"Working","OW288"
"2023-04-29 14:00",13.89,"Working","OW288"
"2023-04-29 15:00",13.888,"Working","OW288"
"2023-04-29 16:00",13.886,"Working","OW288"
"2023-04-29 17:00",13.885,"Working","OW288"
"2023-04-29 18:00",13.883,"Working","OW288"
"2023-04-29 19:00",13.882,"Working","OW288"
"2023-04-29 20:00",13.88,"Working","OW288"
"2023-04-29 21:00",13.877,"Working","OW288"
"2023-04-29 22:00",13.874,"Working","OW288"
"2023-04-29 23:00",13.872,"Working","OW288"
"2023-04-30 00:00",13.87,"Working","OW288"
"2023-04-30 01:00",13.868,"Working","OW288"
"2023-04-30 02:00",13.867,"Working","OW288"
"2023-04-30 03:00",13.867,"Working","OW288"
"2023-04-30 04:00",13.869,"Working","OW288"
"2023-04-30 05:00",13.871,"Working","OW288"
"2023-04-30 06:00",13.873,"Working","OW288"
"2023-04-30 07:00",13.875,"Working","OW288"
"2023-04-30 08:00",13.876,"Working","OW288"
"2023-04-30 09:00",13.876,"Working","OW288"
"2023-04-30 10:00",13.878,"Working","OW288"
"2023-04-30 11:00",13.88,"Working","OW288"
"2023-04-30 12:00",13.881,"Working","OW288"
"2023-04-30 13:00",13.882,"Working","OW288"
"2023-04-30 14:00",13.884,"Working","OW288"
"2023-04-30 15:00",13.885,"Working","OW288"
"2023-04-30 16:00",13.886,"Working","OW288"
"2023-04-30 17:00",13.888,"Working","OW288"
"2023-04-30 18:00",13.889,"Working","OW288"
"2023-04-30 19:00",13.891,"Working","OW288"
"2023-04-30 20:00",13.892,"Working","OW288"
"2023-04-30 21:00",13.892,"Working","OW288"
"2023-04-30 22:00",13.893,"Working","OW288"
"2023-04-30 23:00",13.893,"Working","OW288"
"2023-05-01 00:00",13.893,"Working","OW288"
"2023-05-01 01:00",13.893,"Working","OW288"
"2023-05-01 02:00",13.893,"Working","OW288"
"2023-05-01 03:00",13.893,"Working","OW288"
"2023-05-01 04:00",13.894,"Working","OW288"
"2023-05-01 05:00",13.894,"Working","OW288"
"2023-05-01 06:00",13.894,"Working","OW288"
"2023-05-01 07:00",13.894,"Working","OW288"
"2023-05-01 08:00",13.895,"Working","OW288"
"2023-05-01 09:00",13.895,"Working","OW288"
"2023-05-01 10:00",13.895,"Working","OW288"
"2023-05-01 11:00",13.895,"Working","OW288"
"2023-05-01 12:00",13.896,"Working","OW288"
"2023-05-01 13:00",13.896,"Working","OW288"
"2023-05-01 14:00",13.897,"Working","OW288"
"2023-05-01 15:00",13.897,"Working","OW288"
"2023-05-01 16:00",13.898,"Working","OW288"
"2023-05-01 17:00",13.897,"Working","OW288"
"2023-05-01 18:00",13.896,"Working","OW288"
"2023-05-01 19:00",13.895,"Working","OW288"
"2023-05-01 20:00",13.894,"Working","OW288"
"2023-05-01 21:00",13.893,"Working","OW288"
"2023-05-01 22:00",13.892,"Working","OW288"
"2023-05-01 23:00",13.891,"Working","OW288"
"2023-05-02 00:00",13.889,"Working","OW288"
"2023-05-02 01:00",13.888,"Working","OW288"
"2023-05-02 02:00",13.886,"Working","OW288"
"2023-05-02 03:00",13.885,"Working","OW288"
"2023-05-02 04:00",13.886,"Working","OW288"
"2023-05-02 05:00",13.885,"Working","OW288"
"2023-05-02 06:00",13.885,"Working","OW288"
"2023-05-02 07:00",13.884,"Working","OW288"
"2023-05-02 08:00",13.884,"Working","OW288"
"2023-05-02 09:00",13.883,"Working","OW288"
"2023-05-02 10:00",13.884,"Working","OW288"
"2023-05-02 11:00",13.884,"Working","OW288"
"2023-05-02 12:00",13.884,"Working","OW288"
"2023-05-02 13:00",13.883,"Working","OW288"
"2023-05-02 14:00",13.881,"Working","OW288"
"2023-05-02 15:00",13.879,"Working","OW288"
"2023-05-02 16:00",13.877,"Working","OW288"
"2023-05-02 17:00",13.875,"Working","OW288"
"2023-05-02 18:00",13.873,"Working","OW288"
"2023-05-02 19:00",13.87,"Working","OW288"
"2023-05-02 20:00",13.867,"Working","OW288"
"2023-05-02 21:00",13.864,"Working","OW288"
"2023-05-02 22:00",13.861,"Working","OW288"
"2023-05-02 23:00",13.857,"Working","OW288"
"2023-05-03 00:00",13.854,"Working","OW288"
"2023-05-03 01:00",13.85,"Working","OW288"
"2023-05-03 02:00",13.847,"Working","OW288"
"2023-05-03 03:00",13.845,"Working","OW288"
"2023-05-03 04:00",13.844,"Working","OW288"
"2023-05-03 05:00",13.843,"Working","OW288"
"2023-05-03 06:00",13.844,"Working","OW288"
"2023-05-03 07:00",13.844,"Working","OW288"
"2023-05-03 08:00",13.847,"Working","OW288"
"2023-05-03 09:00",13.849,"Working","OW288"
"2023-05-03 10:00",13.851,"Working","OW288"
"2023-05-03 11:00",13.853,"Working","OW288"
"2023-05-03 12:00",13.854,"Working","OW288"
"2023-05-03 13:00",13.855,"Working","OW288"
"2023-05-03 14:00",13.855,"Working","OW288"
"2023-05-03 15:00",13.856,"Working","OW288"
"2023-05-03 16:00",13.856,"Working","OW288"
"2023-05-03 17:00",13.855,"Working","OW288"
"2023-05-03 18:00",13.854,"Working","OW288"
"2023-05-03 19:00",13.852,"Working","OW288"
"2023-05-03 20:00",13.848,"Working","OW288"
"2023-05-03 21:00",13.846,"Working","OW288"
"2023-05-03 22:00",13.842,"Working","OW288"
"2023-05-03 23:00",13.839,"Working","OW288"
"2023-05-04 00:00",13.835,"Working","OW288"
"2023-05-04 01:00",13.831,"Working","OW288"
"2023-05-04 02:00",13.828,"Working","OW288"
"2023-05-04 03:00",13.825,"Working","OW288"
"2023-05-04 04:00",13.822,"Working","OW288"
"2023-05-04 05:00",13.821,"Working","OW288"
"2023-05-04 06:00",13.819,"Working","OW288"
"2023-05-04 07:00",13.819,"Working","OW288"
"2023-05-04 08:00",13.819,"Working","OW288"
"2023-05-04 09:00",13.82,"Working","OW288"
"2023-05-04 10:00",13.82,"Working","OW288"
"2023-05-04 11:00",13.821,"Working","OW288"
"2023-05-04 12:00",13.822,"Working","OW288"
"2023-05-04 13:00",13.822,"Working","OW288"
"2023-05-04 14:00",13.822,"Working","OW288"
"2023-05-04 15:00",13.821,"Working","OW288"
"2023-05-04 16:00",13.819,"Working","OW288"
"2023-05-04 17:00",13.818,"Working","OW288"
"2023-05-04 18:00",13.816,"Working","OW288"
"2023-05-04 19:00",13.814,"Working","OW288"
"2023-05-04 20:00",13.812,"Working","OW288"
"2023-05-04 21:00",13.81,"Working","OW288"
"2023-05-04 22:00",13.806,"Working","OW288"
"2023-05-04 23:00",13.802,"Working","OW288"
"2023-05-05 00:00",13.798,"Working","OW288"
"2023-05-05 01:00",13.794,"Working","OW288"
"2023-05-05 02:00",13.792,"Working","OW288"
"2023-05-05 03:00",13.789,"Working","OW288"
"2023-05-05 04:00",13.788,"Working","OW288"
"2023-05-05 05:00",13.789,"Working","OW288"
"2023-05-05 06:00",13.79,"Working","OW288"
"2023-05-05 07:00",13.79,"Working","OW288"
"2023-05-05 09:00",13.795,"Working","OW288"
"2023-05-05 10:00",13.794,"Working","OW288"
"2023-05-05 11:00",13.793,"Working","OW288"
"2023-05-05 12:00",13.794,"Working","OW288"
"2023-05-05 13:00",13.794,"Working","OW288"
"2023-05-05 14:00",13.795,"Working","OW288"
"2023-05-05 15:00",13.796,"Working","OW288"
"2023-05-05 16:00",13.796,"Working","OW288"
"2023-05-05 17:00",13.796,"Working","OW288"
"2023-05-05 18:00",13.797,"Working","OW288"
"2023-05-05 19:00",13.798,"Working","OW288"
"2023-05-05 20:00",13.799,"Working","OW288"
"2023-05-05 21:00",13.802,"Working","OW288"
"2023-05-05 22:00",13.804,"Working","OW288"
"2023-05-05 23:00",13.805,"Working","OW288"
"2023-05-06 00:00",13.806,"Working","OW288"
"2023-05-06 01:00",13.808,"Working","OW288"
"2023-05-06 02:00",13.809,"Working","OW288"
"2023-05-06 03:00",13.81,"Working","OW288"
"2023-05-06 04:00",13.811,"Working","OW288"
"2023-05-06 05:00",13.812,"Working","OW288"
"2023-05-06 06:00",13.813,"Working","OW288"
"2023-05-06 07:00",13.813,"Working","OW288"
"2023-05-06 08:00",13.814,"Working","OW288"
"2023-05-06 09:00",13.815,"Working","OW288"
"2023-05-06 10:00",13.814,"Working","OW288"
"2023-05-06 11:00",13.814,"Working","OW288"
"2023-05-06 12:00",13.813,"Working","OW288"
"2023-05-06 13:00",13.813,"Working","OW288"
"2023-05-06 14:00",13.812,"Working","OW288"
"2023-05-06 15:00",13.812,"Working","OW288"
"2023-05-06 16:00",13.812,"Working","OW288"
"2023-05-06 17:00",13.812,"Working","OW288"
"2023-05-06 18:00",13.811,"Working","OW288"
"2023-05-06 19:00",13.811,"Working","OW288"
"2023-05-06 20:00",13.812,"Working","OW288"
"2023-05-06 21:00",13.811,"Working","OW288"
"2023-05-06 22:00",13.811,"Working","OW288"
"2023-05-06 23:00",13.811,"Working","OW288"
"2023-05-07 00:00",13.811,"Working","OW288"
"2023-05-07 01:00",13.814,"Working","OW288"
"2023-05-07 02:00",13.818,"Working","OW288"
"2023-05-07 03:00",13.824,"Working","OW288"
"2023-05-07 04:00",13.831,"Working","OW288"
"2023-05-07 05:00",13.838,"Working","OW288"
"2023-05-07 06:00",13.845,"Working","OW288"
"2023-05-07 07:00",13.852,"Working","OW288"
"2023-05-07 08:00",13.858,"Working","OW288"
"2023-05-07 09:00",13.865,"Working","OW288"
"2023-05-07 10:00",13.872,"Working","OW288"
"2023-05-07 11:00",13.878,"Working","OW288"
"2023-05-07 12:00",13.885,"Working","OW288"
"2023-05-07 13:00",13.89,"Working","OW288"
"2023-05-07 14:00",13.895,"Working","OW288"
"2023-05-07 15:00",13.9,"Working","OW288"
"2023-05-07 16:00",13.905,"Working","OW288"
"2023-05-07 17:00",13.91,"Working","OW288"
"2023-05-07 18:00",13.913,"Working","OW288"
"2023-05-07 19:00",13.916,"Working","OW288"
"2023-05-07 20:00",13.919,"Working","OW288"
"2023-05-07 21:00",13.922,"Working","OW288"
"2023-05-07 22:00",13.925,"Working","OW288"
"2023-05-07 23:00",13.928,"Working","OW288"
"2023-05-08 00:00",13.93,"Working","OW288"
"2023-05-08 01:00",13.933,"Working","OW288"
"2023-05-08 02:00",13.933,"Working","OW288"
"2023-05-08 03:00",13.934,"Working","OW288"
"2023-05-08 04:00",13.935,"Working","OW288"
"2023-05-08 05:00",13.936,"Working","OW288"
"2023-05-08 06:00",13.937,"Working","OW288"
"2023-05-08 07:00",13.939,"Working","OW288"
"2023-05-08 08:00",13.94,"Working","OW288"
"2023-05-08 09:00",13.941,"Working","OW288"
"2023-05-08 10:00",13.943,"Working","OW288"
"2023-05-08 11:00",13.945,"Working","OW288"
"2023-05-08 12:00",13.946,"Working","OW288"
"2023-05-08 13:00",13.947,"Working","OW288"
"2023-05-08 14:00",13.948,"Working","OW288"
"2023-05-08 15:00",13.949,"Working","OW288"
"2023-05-08 16:00",13.949,"Working","OW288"
"2023-05-08 17:00",13.949,"Working","OW288"
"2023-05-08 18:00",13.949,"Working","OW288"
"2023-05-08 19:00",13.949,"Working","OW288"
"2023-05-08 20:00",13.949,"Working","OW288"
"2023-05-08 21:00",13.95,"Working","OW288"
"2023-05-08 22:00",13.949,"Working","OW288"
"2023-05-08 23:00",13.95,"Working","OW288"
"2023-05-09 00:00",13.949,"Working","OW288"
"2023-05-09 01:00",13.948,"Working","OW288"
"2023-05-09 02:00",13.949,"Working","OW288"
"2023-05-09 03:00",13.949,"Working","OW288"
"2023-05-09 04:00",13.95,"Working","OW288"
"2023-05-09 05:00",13.951,"Working","OW288"
"2023-05-09 06:00",13.954,"Working","OW288"
"2023-05-09 07:00",13.957,"Working","OW288"
"2023-05-09 08:00",13.96,"Working","OW288"
"2023-05-09 09:00",13.963,"Working","OW288"
"2023-05-09 10:00",13.968,"Working","OW288"
"2023-05-09 11:00",13.971,"Working","OW288"
"2023-05-09 12:00",13.975,"Working","OW288"
"2023-05-09 13:00",13.978,"Working","OW288"
"2023-05-09 14:00",13.982,"Working","OW288"
"2023-05-09 15:00",13.985,"Working","OW288"
"2023-05-09 16:00",13.989,"Working","OW288"
"2023-05-09 17:00",13.992,"Working","OW288"
"2023-05-09 18:00",13.995,"Working","OW288"
"2023-05-09 19:00",13.996,"Working","OW288"
"2023-05-09 20:00",13.999,"Working","OW288"
"2023-05-09 21:00",14.001,"Working","OW288"
"2023-05-09 22:00",14.003,"Working","OW288"
"2023-05-09 23:00",14.005,"Working","OW288"
"2023-05-10 00:00",14.007,"Working","OW288"
"2023-05-10 01:00",14.008,"Working","OW288"
"2023-05-10 02:00",14.009,"Working","OW288"
"2023-05-10 03:00",14.011,"Working","OW288"
"2023-05-10 04:00",14.014,"Working","OW288"
"2023-05-10 05:00",14.016,"Working","OW288"